When you browse on this site, cookies collect data to enhance your experience and personalize the content and advertising you see.
Visit our Privacy Policy to learn more. By continuing to use the site, you agree to this use of cookies and data.
  • In Czech Republic
  • List of Countries
  • For 7 days
  • Water Temperature
  • Satellite Maps
  • Weather Map
  • Weather Widgets
  • user-avatar
    Login

    Hourly Weather Dromore

    Today, 17 January, Thursday

    Time Temperature Precipitation Wind Pressure Humidity
    00:00 +1°C° 0 mm 6 mps 744 mmHg 77%
    01:00 -1°C° 0 mm 6 mps 745 mmHg 73%
    02:00 -1°C° 0 mm 6 mps 746 mmHg 70%
    03:00 -1°C° 0 mm 6 mps 747 mmHg 66%
    04:00 0°C° 0 mm 5 mps 748 mmHg 67%
    05:00 -1°C° 0 mm 5 mps 749 mmHg 68%
    06:00 -1°C° 0 mm 4 mps 749 mmHg 67%
    07:00 -1°C° 0 mm 4 mps 750 mmHg 69%
    08:00 0°C° 0 mm 3 mps 750 mmHg 72%
    09:00 -1°C° 0 mm 3 mps 751 mmHg 75%
    10:00 +1°C° 0 mm 3 mps 752 mmHg 72%
    11:00 +2°C° 0 mm 3 mps 752 mmHg 69%
    12:00 +3°C° 0 mm 3 mps 753 mmHg 66%
    13:00 +4°C° 0 mm 2 mps 752 mmHg 68%
    14:00 +4°C° 0 mm 2 mps 752 mmHg 69%
    15:00 +5°C° 0 mm 1 mps 752 mmHg 70%
    16:00 +4°C° 0 mm 1 mps 752 mmHg 73%
    17:00 +3°C° 0 mm 1 mps 752 mmHg 76%
    18:00 +2°C° 0 mm 1 mps 752 mmHg 79%
    19:00 +2°C° 0 mm 1 mps 752 mmHg 79%
    20:00 +1°C° 0 mm 2 mps 752 mmHg 80%
    21:00 +1°C° 0 mm 2 mps 752 mmHg 80%
    22:00 +2°C° 0 mm 2 mps 751 mmHg 78%
    23:00 +1°C° 0 mm 3 mps 751 mmHg 75%

    Tomorrow, 18 January, Friday

    Time Temperature Precipitation Wind Pressure Humidity
    00:00 +1°C° 0 mm 3 mps 750 mmHg 73%
    01:00 +1°C° 0 mm 4 mps 750 mmHg 72%
    02:00 +1°C° 0 mm 4 mps 749 mmHg 72%
    03:00 +1°C° 0 mm 5 mps 748 mmHg 72%
    04:00 +1°C° 0.1 mm 5 mps 748 mmHg 74%
    05:00 +2°C° 0.1 mm 5 mps 747 mmHg 76%
    06:00 +2°C° 0.1 mm 6 mps 746 mmHg 78%
    07:00 +2°C° 0.7 mm 6 mps 746 mmHg 81%
    08:00 +2°C° 0.7 mm 6 mps 745 mmHg 85%
    09:00 +2°C° 0.7 mm 6 mps 745 mmHg 89%
    10:00 +3°C° 0.6 mm 6 mps 744 mmHg 90%
    11:00 +3°C° 0.6 mm 6 mps 744 mmHg 90%
    12:00 +4°C° 0.6 mm 6 mps 744 mmHg 91%
    13:00 +5°C° 0.8 mm 5 mps 743 mmHg 92%
    14:00 +5°C° 0.8 mm 4 mps 743 mmHg 93%
    15:00 +7°C° 0.8 mm 3 mps 742 mmHg 94%
    16:00 +5°C° 0 mm 3 mps 742 mmHg 94%
    17:00 +4°C° 0 mm 3 mps 742 mmHg 94%
    18:00 +5°C° 0 mm 2 mps 742 mmHg 95%
    19:00 +5°C° 0.3 mm 2 mps 742 mmHg 95%
    20:00 +5°C° 0.3 mm 2 mps 742 mmHg 96%
    21:00 +5°C° 0.3 mm 2 mps 742 mmHg 97%
    22:00 +5°C° 0.4 mm 2 mps 742 mmHg 97%
    23:00 +4°C° 0.4 mm 2 mps 742 mmHg 96%

    Day after tomorrow, 19 January, Saturday

    Time Temperature Precipitation Wind Pressure Humidity
    00:00 +4°C° 0.4 mm 2 mps 741 mmHg 96%
    01:00 +4°C° 0 mm 2 mps 741 mmHg 96%
    02:00 +3°C° 0 mm 2 mps 741 mmHg 95%
    03:00 +3°C° 0 mm 2 mps 741 mmHg 95%
    04:00 +3°C° 0 mm 2 mps 741 mmHg 95%
    05:00 +4°C° 0 mm 1 mps 741 mmHg 95%
    06:00 +4°C° 0 mm 1 mps 741 mmHg 96%
    07:00 +4°C° 0 mm 1 mps 742 mmHg 96%
    08:00 +4°C° 0 mm 0 mps 742 mmHg 95%
    09:00 +4°C° 0 mm 0 mps 742 mmHg 95%
    10:00 +4°C° 0 mm 0 mps 743 mmHg 93%
    11:00 +5°C° 0 mm 0 mps 743 mmHg 91%
    12:00 +5°C° 0 mm 0 mps 743 mmHg 89%
    13:00 +6°C° 0 mm 1 mps 744 mmHg 90%
    14:00 +6°C° 0 mm 1 mps 744 mmHg 90%
    15:00 +6°C° 0 mm 1 mps 744 mmHg 91%
    16:00 +6°C° 0 mm 1 mps 744 mmHg 92%
    17:00 +6°C° 0 mm 1 mps 745 mmHg 92%
    18:00 +5°C° 0 mm 1 mps 745 mmHg 93%
    19:00 +5°C° 0 mm 1 mps 746 mmHg 93%
    20:00 +5°C° 0 mm 1 mps 746 mmHg 93%
    21:00 +5°C° 0 mm 1 mps 747 mmHg 94%
    22:00 +5°C° 0 mm 1 mps 747 mmHg 94%
    23:00 +4°C° 0 mm 2 mps 748 mmHg 94%

    20 January, Sunday

    Time Temperature Precipitation Wind Pressure Humidity
    00:00 +4°C° 0 mm 2 mps 748 mmHg 95%
    01:00 +3°C° 0.6 mm 4 mps 749 mmHg 92%
    02:00 +3°C° 0.6 mm 6 mps 749 mmHg 90%
    03:00 +2°C° 0.6 mm 8 mps 750 mmHg 88%
    04:00 +2°C° 0.1 mm 8 mps 751 mmHg 87%
    05:00 +2°C° 0.1 mm 7 mps 751 mmHg 86%
    06:00 +2°C° 0.1 mm 6 mps 752 mmHg 84%
    07:00 +1°C° 0 mm 6 mps 753 mmHg 84%
    08:00 +1°C° 0 mm 5 mps 754 mmHg 83%
    09:00 0°C° 0 mm 5 mps 755 mmHg 82%
    10:00 +1°C° 0 mm 5 mps 755 mmHg 80%
    11:00 +2°C° 0 mm 6 mps 756 mmHg 78%
    12:00 +3°C° 0 mm 6 mps 757 mmHg 75%
    13:00 +3°C° 0 mm 6 mps 757 mmHg 75%
    14:00 +3°C° 0 mm 6 mps 758 mmHg 74%
    15:00 +3°C° 0 mm 5 mps 758 mmHg 73%
    16:00 +2°C° 0 mm 5 mps 759 mmHg 75%
    17:00 +1°C° 0 mm 4 mps 759 mmHg 76%
    18:00 0°C° 0 mm 4 mps 760 mmHg 77%
    19:00 0°C° 0 mm 3 mps 760 mmHg 79%
    20:00 0°C° 0 mm 3 mps 760 mmHg 81%
    21:00 0°C° 0 mm 3 mps 761 mmHg 83%
    22:00 -1°C° 0 mm 3 mps 761 mmHg 85%
    23:00 -1°C° 0 mm 2 mps 761 mmHg 86%

    21 January, Monday

    Time Temperature Precipitation Wind Pressure Humidity
    00:00 -1°C° 0 mm 2 mps 761 mmHg 88%
    01:00 -1°C° 0 mm 2 mps 761 mmHg 87%
    02:00 -1°C° 0 mm 2 mps 761 mmHg 87%
    03:00 -1°C° 0 mm 2 mps 760 mmHg 86%
    04:00 -1°C° 0 mm 2 mps 760 mmHg 86%
    05:00 -1°C° 0 mm 3 mps 759 mmHg 86%
    06:00 -1°C° 0 mm 3 mps 759 mmHg 86%
    07:00 -1°C° 0 mm 3 mps 758 mmHg 84%
    08:00 -1°C° 0 mm 4 mps 758 mmHg 81%
    09:00 -1°C° 0 mm 4 mps 757 mmHg 79%
    10:00 0°C° 0 mm 5 mps 756 mmHg 77%
    11:00 +1°C° 0 mm 6 mps 755 mmHg 75%
    12:00 +2°C° 0 mm 7 mps 754 mmHg 73%
    13:00 +2°C° 0.1 mm 7 mps 752 mmHg 75%
    14:00 +1°C° 0.1 mm 8 mps 750 mmHg 77%
    15:00 +1°C° 0.1 mm 8 mps 748 mmHg 79%
    16:00 +1°C° 0.9 mm 8 mps 746 mmHg 81%
    17:00 +1°C° 0.9 mm 9 mps 744 mmHg 84%
    18:00 +1°C° 0.9 mm 9 mps 743 mmHg 86%
    19:00 +1°C° 0.7 mm 9 mps 742 mmHg 86%
    20:00 0°C° 0.7 mm 8 mps 741 mmHg 86%
    21:00 0°C° 0.7 mm 7 mps 741 mmHg 86%
    22:00 -1°C° 0.1 mm 7 mps 741 mmHg 85%
    23:00 -1°C° 0.1 mm 6 mps 741 mmHg 84%

    22 January, Tuesday

    Time Temperature Precipitation Wind Pressure Humidity
    00:00 0°C° 0.1 mm 5 mps 740 mmHg 83%
    01:00 -1°C° 0 mm 5 mps 741 mmHg 84%
    02:00 -1°C° 0 mm 5 mps 741 mmHg 85%
    03:00 -2°C° 0 mm 4 mps 741 mmHg 86%
    04:00 -2°C° 0 mm 5 mps 741 mmHg 85%
    05:00 -1°C° 0 mm 5 mps 741 mmHg 84%
    06:00 -2°C° 0 mm 6 mps 742 mmHg 82%
    07:00 -1°C° 0 mm 5 mps 742 mmHg 82%
    08:00 -2°C° 0 mm 5 mps 742 mmHg 83%
    09:00 -2°C° 0 mm 4 mps 742 mmHg 83%
    10:00 -1°C° 0 mm 5 mps 742 mmHg 80%
    11:00 0°C° 0 mm 5 mps 743 mmHg 77%
    12:00 +2°C° 0 mm 5 mps 743 mmHg 74%
    13:00 +2°C° 0 mm 5 mps 743 mmHg 74%
    14:00 +2°C° 0 mm 5 mps 743 mmHg 74%
    15:00 +2°C° 0 mm 5 mps 743 mmHg 74%
    16:00 +1°C° 0 mm 5 mps 743 mmHg 76%
    17:00 0°C° 0 mm 4 mps 744 mmHg 77%
    18:00 -1°C° 0 mm 4 mps 744 mmHg 79%
    19:00 -1°C° 0 mm 4 mps 744 mmHg 80%
    20:00 -2°C° 0 mm 4 mps 745 mmHg 82%
    21:00 -1°C° 0 mm 3 mps 745 mmHg 83%
    22:00 -1°C° 0 mm 3 mps 745 mmHg 84%
    23:00 -1°C° 0 mm 3 mps 745 mmHg 85%
    Show more